contact:dominique.lefevre@mio.osupytheas.fr, maurice.libes@osupytheas.fr, didier.mallarino@osupytheas.fr
Project:EMSO http://www.emso-fr.org/EMSO-France
Depth: 2436.0 m
Title:EMSO Ligure Ouest : Data MII capteur AQUADOPP
Date,Latitude,Longitude,X_East,Y_North,Z_Up,Amplitude_X,Amplitude_Y,Amplitude_Z,Batterie,SoundSpeed,Heading,Pitch,Roll,Pressure,TIS,Speed,Direction
, degrees North, degrees East, m.s-1, m.s-1,m.s-1, 1, 1, 1, Volt, m.s-1, degree, degree, degree, dbar, degree_C, m.s-1, degree
2022-09-02T00:04:03,42.805,6.029,0.009,-0.01,-0.01,100.0,103.0,100.0,13.4,1505.2,330.3,-0.8,1.8,2470.651,13.28,0.013,138.0
2022-09-02T00:07:03,42.805,6.029,-0.001,-0.005,-0.058,98.0,100.0,101.0,13.4,1505.2,326.7,-0.7,1.8,2470.651,13.28,0.005,191.3
2022-09-02T00:10:03,42.805,6.029,0.012,0.005,-0.013,101.0,101.0,99.0,13.4,1505.2,323.0,-0.8,1.8,2470.635,13.28,0.013,67.4
2022-09-02T00:13:03,42.805,6.029,0.004,0.009,-0.008,101.0,102.0,101.0,13.4,1505.2,326.6,-0.8,1.8,2470.67,13.28,0.009,24.0
2022-09-02T00:16:03,42.805,6.029,-0.012,0.013,-0.012,101.0,103.0,99.0,13.3,1505.2,327.5,-0.8,1.8,2470.63,13.28,0.017,317.3
2022-09-02T00:19:03,42.805,6.029,0.011,-0.006,-0.052,101.0,101.0,100.0,13.3,1505.2,317.6,-0.8,1.8,2470.629,13.29,0.012,118.6
2022-09-02T00:22:03,42.805,6.029,0.018,0.005,-0.009,100.0,101.0,101.0,13.4,1505.2,333.4,-0.8,1.8,2470.629,13.29,0.018,74.5
2022-09-02T00:25:03,42.805,6.029,0.004,-0.01,-0.025,100.0,101.0,100.0,13.4,1505.2,325.6,-0.8,1.8,2470.625,13.29,0.01,158.2
2022-09-02T00:28:03,42.805,6.029,0.0,0.016,-0.021,100.0,100.0,99.0,13.4,1505.2,333.7,-0.7,1.8,2470.612,13.29,0.016,0.0
2022-09-02T00:31:03,42.805,6.029,0.024,-0.007,-0.011,100.0,103.0,100.0,13.3,1505.2,323.5,-0.8,1.8,2470.584,13.29,0.025,106.3
2022-09-02T00:34:03,42.805,6.029,0.02,0.002,-0.014,100.0,101.0,99.0,13.3,1505.2,332.5,-0.8,1.8,2470.639,13.29,0.02,84.3
2022-09-02T00:37:03,42.805,6.029,-0.003,0.011,-0.004,103.0,102.0,100.0,13.4,1505.2,323.3,-0.7,1.8,2470.578,13.29,0.011,344.7
2022-09-02T00:40:03,42.805,6.029,0.015,-0.008,-0.011,99.0,102.0,101.0,13.4,1505.2,330.4,-0.8,1.8,2470.619,13.29,0.017,118.1
2022-09-02T00:43:03,42.805,6.029,0.009,0.004,-0.033,100.0,100.0,100.0,13.4,1505.2,320.4,-0.8,1.9,2470.562,13.29,0.009,66.0
2022-09-02T00:46:03,42.805,6.029,0.016,-0.01,-0.033,101.0,101.0,100.0,13.3,1505.2,324.4,-0.8,1.8,2470.608,13.29,0.018,122.0
2022-09-02T00:49:03,42.805,6.029,0.017,0.006,0.007,100.0,101.0,100.0,13.4,1505.2,325.5,-0.8,1.8,2470.591,13.29,0.018,70.6
2022-09-02T00:52:03,42.805,6.029,0.013,-0.008,-0.027,101.0,99.0,99.0,13.3,1505.2,327.1,-0.7,1.8,2470.592,13.29,0.015,121.6
2022-09-02T00:55:03,42.805,6.029,0.017,0.017,0.014,101.0,101.0,100.0,13.4,1505.2,323.2,-0.8,1.8,2470.567,13.29,0.024,45.0
2022-09-02T00:58:03,42.805,6.029,0.029,-0.01,-0.016,101.0,100.0,100.0,13.4,1505.2,334.2,-0.8,1.8,2470.56,13.29,0.03,109.0
2022-09-02T01:04:03,42.805,6.029,0.017,0.014,0.045,104.0,104.0,101.0,13.3,1505.2,330.9,-0.8,1.8,2470.62,13.28,0.022,50.5
2022-09-02T01:07:03,42.805,6.029,0.023,0.01,-0.062,102.0,102.0,101.0,13.4,1505.2,321.5,-0.8,1.8,2470.576,13.28,0.025,66.5
2022-09-02T01:10:03,42.805,6.029,0.012,-0.006,-0.022,99.0,100.0,101.0,13.4,1505.2,323.3,-0.8,1.8,2470.598,13.28,0.013,116.6
2022-09-02T01:13:03,42.805,6.029,0.001,0.007,-0.008,101.0,99.0,99.0,13.4,1505.2,326.9,-0.8,1.8,2470.569,13.28,0.007,8.1
2022-09-02T01:16:03,42.805,6.029,0.01,-0.014,-0.059,101.0,100.0,99.0,13.4,1505.2,325.2,-0.8,1.8,2470.57,13.28,0.017,144.5
2022-09-02T01:19:03,42.805,6.029,0.004,0.006,-0.002,101.0,101.0,101.0,13.4,1505.2,330.4,-0.8,1.8,2470.565,13.28,0.007,33.7
2022-09-02T01:22:03,42.805,6.029,0.032,0.032,-0.011,100.0,100.0,101.0,13.3,1505.2,320.0,-0.8,1.8,2470.585,13.28,0.045,45.0
2022-09-02T01:25:03,42.805,6.029,0.039,-0.009,-0.041,101.0,102.0,99.0,13.4,1505.2,320.6,-0.8,1.8,2470.558,13.29,0.04,103.0
2022-09-02T01:28:03,42.805,6.029,-0.009,0.008,-0.026,99.0,100.0,100.0,13.3,1505.2,328.5,-0.8,1.8,2470.592,13.29,0.012,311.6
2022-09-02T01:31:03,42.805,6.029,-0.009,0.004,0.013,100.0,100.0,101.0,13.3,1505.2,327.1,-0.7,1.8,2470.539,13.29,0.009,294.0
2022-09-02T01:34:03,42.805,6.029,0.02,-0.008,-0.022,101.0,100.0,100.0,13.4,1505.2,328.0,-0.7,1.8,2470.569,13.29,0.021,111.8
2022-09-02T01:37:03,42.805,6.029,0.014,0.003,-0.028,100.0,102.0,99.0,13.4,1505.2,324.2,-0.8,1.8,2470.57,13.29,0.014,77.9
2022-09-02T01:40:03,42.805,6.029,0.016,-0.003,-0.032,100.0,100.0,100.0,13.4,1505.2,319.2,-0.8,1.8,2470.557,13.29,0.016,100.6
2022-09-02T01:43:03,42.805,6.029,0.0,0.005,-0.005,100.0,101.0,100.0,13.4,1505.2,319.8,-0.8,1.8,2470.548,13.29,0.005,0.0
2022-09-02T01:46:03,42.805,6.029,0.003,-0.009,-0.009,100.0,100.0,100.0,13.4,1505.2,326.9,-0.8,1.8,2470.515,13.29,0.009,161.6
2022-09-02T01:49:03,42.805,6.029,-0.008,0.022,-0.004,100.0,100.0,100.0,13.3,1505.2,322.3,-0.8,1.8,2470.572,13.29,0.023,340.0
2022-09-02T01:52:03,42.805,6.029,0.024,0.002,-0.026,101.0,101.0,99.0,13.4,1505.2,321.0,-0.8,1.8,2470.533,13.29,0.024,85.2
2022-09-02T01:55:03,42.805,6.029,0.025,-0.013,-0.038,101.0,100.0,100.0,13.3,1505.2,329.7,-0.7,1.8,2470.578,13.29,0.028,117.5
2022-09-02T01:58:03,42.805,6.029,0.0,-0.001,-0.003,101.0,100.0,100.0,13.4,1505.2,318.3,-0.8,1.8,2470.538,13.29,0.001,180.0
2022-09-02T02:04:03,42.805,6.029,0.038,0.007,0.005,100.0,101.0,100.0,13.4,1505.2,327.9,-0.7,1.8,2470.566,13.28,0.038,79.6
2022-09-02T02:07:03,42.805,6.029,0.018,-0.005,-0.031,101.0,101.0,100.0,13.4,1505.2,327.2,-0.8,1.8,2470.504,13.28,0.018,105.5
2022-09-02T02:10:03,42.805,6.029,0.026,-0.007,-0.017,102.0,100.0,99.0,13.4,1505.2,324.9,-0.7,1.8,2470.551,13.28,0.026,105.1
2022-09-02T02:13:03,42.805,6.029,-0.004,-0.004,-0.053,101.0,100.0,100.0,13.4,1505.2,322.2,-0.8,1.8,2470.53,13.28,0.005,225.0
2022-09-02T02:16:03,42.805,6.029,0.006,-0.009,-0.014,102.0,100.0,98.0,13.3,1505.2,330.8,-0.8,1.8,2470.55,13.28,0.01,146.3
2022-09-02T02:19:03,42.805,6.029,0.003,-0.004,-0.041,101.0,100.0,99.0,13.3,1505.2,327.3,-0.8,1.8,2470.549,13.29,0.005,143.1
2022-09-02T02:22:03,42.805,6.029,0.004,0.002,-0.036,100.0,101.0,99.0,13.3,1505.2,319.6,-0.8,1.8,2470.53,13.29,0.004,63.4
2022-09-02T02:25:03,42.805,6.029,0.021,0.0,-0.02,100.0,101.0,100.0,13.4,1505.2,332.3,-0.8,1.8,2470.53,13.29,0.021,90.0
2022-09-02T02:28:03,42.805,6.029,0.0,0.015,-0.009,99.0,99.0,100.0,13.3,1505.2,317.4,-0.8,1.8,2470.518,13.29,0.015,0.0
2022-09-02T02:31:03,42.805,6.029,-0.001,0.0,-0.014,99.0,100.0,99.0,13.4,1505.2,327.2,-0.7,1.8,2470.553,13.29,0.001,270.0
2022-09-02T02:34:03,42.805,6.029,0.022,0.014,0.014,99.0,100.0,101.0,13.3,1505.2,328.9,-0.8,1.8,2470.546,13.29,0.026,57.5
2022-09-02T02:37:03,42.805,6.029,0.04,-0.005,-0.022,101.0,100.0,101.0,13.3,1505.2,317.8,-0.8,1.8,2470.512,13.29,0.04,97.1
2022-09-02T02:40:03,42.805,6.029,0.015,-0.008,-0.025,101.0,99.0,100.0,13.3,1505.2,324.0,-0.8,1.8,2470.508,13.29,0.017,118.1
2022-09-02T02:43:03,42.805,6.029,0.011,0.005,0.005,100.0,100.0,100.0,13.4,1505.2,324.0,-0.8,1.8,2470.503,13.29,0.012,65.6
2022-09-02T02:46:03,42.805,6.029,-0.011,-0.009,-0.059,100.0,102.0,100.0,13.3,1505.2,327.5,-0.7,1.8,2470.482,13.29,0.014,230.7
2022-09-02T02:49:03,42.805,6.029,0.018,-0.003,-0.014,101.0,101.0,100.0,13.3,1505.2,319.5,-0.8,1.8,2470.495,13.29,0.018,99.5
2022-09-02T02:52:03,42.805,6.029,0.001,0.001,-0.044,98.0,103.0,100.0,13.3,1505.2,322.2,-0.7,1.8,2470.51,13.29,0.001,45.0
2022-09-02T02:55:03,42.805,6.029,0.016,0.008,-0.018,101.0,100.0,100.0,13.4,1505.2,332.5,-0.8,1.8,2470.486,13.29,0.017,63.4
2022-09-02T02:58:03,42.805,6.029,-0.027,0.0,-0.035,100.0,100.0,100.0,13.4,1505.2,332.8,-0.8,1.8,2470.505,13.29,0.026,270.0
2022-09-02T03:04:03,42.805,6.029,0.002,-0.003,-0.024,102.0,103.0,99.0,13.3,1505.2,328.3,-0.8,1.8,2470.513,13.28,0.003,146.3
2022-09-02T03:07:03,42.805,6.029,0.007,0.005,0.026,100.0,101.0,101.0,13.4,1505.2,330.8,-0.8,1.8,2470.462,13.28,0.008,54.5
2022-09-02T03:10:03,42.805,6.029,0.006,-0.008,-0.03,101.0,102.0,100.0,13.4,1505.2,332.0,-0.7,1.8,2470.518,13.28,0.01,143.1
2022-09-02T03:13:03,42.805,6.029,0.026,-0.004,-0.001,102.0,102.0,100.0,13.4,1505.2,328.0,-0.8,1.8,2470.515,13.28,0.026,98.7
2022-09-02T03:16:03,42.805,6.029,0.017,0.017,-0.018,101.0,101.0,101.0,13.4,1505.2,325.2,-0.8,1.8,2470.498,13.28,0.024,45.0
2022-09-02T03:19:03,42.805,6.029,0.01,-0.008,-0.025,101.0,103.0,99.0,13.3,1505.2,328.7,-0.8,1.8,2470.49,13.29,0.012,128.7
2022-09-02T03:22:03,42.805,6.029,-0.003,-0.001,-0.041,101.0,101.0,101.0,13.3,1505.2,320.4,-0.7,1.8,2470.483,13.29,0.003,251.6
2022-09-02T03:25:03,42.805,6.029,0.006,0.001,-0.029,102.0,101.0,99.0,13.4,1505.2,329.2,-0.8,1.8,2470.446,13.29,0.006,80.5
2022-09-02T03:28:03,42.805,6.029,0.016,0.0,-0.009,104.0,101.0,99.0,13.4,1505.2,331.4,-0.8,1.8,2470.482,13.29,0.016,90.0
2022-09-02T03:31:03,42.805,6.029,0.001,0.005,-0.024,101.0,102.0,99.0,13.3,1505.2,321.4,-0.8,1.8,2470.513,13.29,0.005,11.3
2022-09-02T03:34:03,42.805,6.029,0.01,-0.003,-0.035,101.0,101.0,99.0,13.3,1505.2,321.2,-0.7,1.8,2470.458,13.29,0.01,106.7
2022-09-02T03:37:03,42.805,6.029,0.01,0.021,0.016,100.0,100.0,100.0,13.4,1505.2,324.1,-0.8,1.8,2470.512,13.29,0.023,25.5
2022-09-02T03:40:03,42.805,6.029,-0.003,-0.02,-0.048,100.0,101.0,100.0,13.4,1505.2,323.8,-0.8,1.8,2470.489,13.29,0.02,188.5
2022-09-02T03:43:03,42.805,6.029,-0.006,-0.006,-0.064,98.0,102.0,101.0,13.4,1505.2,333.4,-0.7,1.8,2470.516,13.29,0.008,225.0
2022-09-02T03:46:03,42.805,6.029,-0.008,0.014,0.011,100.0,101.0,100.0,13.4,1505.2,323.4,-0.8,1.8,2470.511,13.29,0.016,330.3
2022-09-02T03:49:03,42.805,6.029,0.019,-0.006,-0.033,99.0,101.0,99.0,13.3,1505.2,332.2,-0.8,1.8,2470.48,13.29,0.019,107.5
2022-09-02T03:52:03,42.805,6.029,0.018,0.012,0.016,101.0,101.0,99.0,13.4,1505.2,320.1,-0.7,1.8,2470.478,13.29,0.021,56.3
2022-09-02T03:55:03,42.805,6.029,0.0,-0.017,-0.075,101.0,100.0,100.0,13.4,1505.2,329.7,-0.8,1.8,2470.476,13.29,0.017,180.0
2022-09-02T03:58:03,42.805,6.029,0.017,-0.011,-0.032,100.0,100.0,101.0,13.3,1505.2,330.1,-0.8,1.8,2470.442,13.29,0.02,122.9
2022-09-02T04:04:03,42.805,6.029,0.016,0.02,-0.02,101.0,101.0,99.0,13.3,1505.2,322.0,-0.8,1.8,2470.498,13.28,0.025,38.7
2022-09-02T04:07:03,42.805,6.029,0.001,0.004,-0.026,101.0,102.0,99.0,13.3,1505.2,328.5,-0.7,1.8,2470.49,13.28,0.004,14.0
2022-09-02T04:10:03,42.805,6.029,-0.022,0.003,-0.018,101.0,102.0,101.0,13.4,1505.2,317.7,-0.7,1.8,2470.522,13.28,0.022,277.8
2022-09-02T04:13:03,42.805,6.029,0.0,-0.009,-0.069,101.0,100.0,101.0,13.4,1505.2,324.5,-0.8,1.8,2470.47,13.28,0.009,180.0
2022-09-02T04:16:03,42.805,6.029,0.019,-0.028,-0.029,101.0,101.0,100.0,13.4,1505.2,322.2,-0.8,1.8,2470.469,13.28,0.033,145.8
2022-09-02T04:19:03,42.805,6.029,0.007,0.004,-0.044,101.0,100.0,100.0,13.3,1505.2,330.4,-0.8,1.8,2470.473,13.29,0.008,60.3
2022-09-02T04:22:03,42.805,6.029,0.02,-0.003,-0.046,100.0,100.0,101.0,13.4,1505.2,321.7,-0.8,1.8,2470.49,13.29,0.02,98.5
2022-09-02T04:25:03,42.805,6.029,0.01,0.0,-0.017,102.0,101.0,101.0,13.4,1505.2,318.4,-0.8,1.8,2470.473,13.29,0.01,90.0
2022-09-02T04:28:03,42.805,6.029,0.029,-0.016,-0.021,101.0,100.0,101.0,13.4,1505.2,320.0,-0.8,1.8,2470.5,13.29,0.033,118.9
2022-09-02T04:31:03,42.805,6.029,0.012,0.009,0.015,102.0,101.0,99.0,13.4,1505.2,330.7,-0.8,1.8,2470.509,13.29,0.015,53.1
2022-09-02T04:34:03,42.805,6.029,0.014,-0.008,-0.019,101.0,101.0,100.0,13.4,1505.2,325.9,-0.7,1.8,2470.51,13.29,0.016,119.7
2022-09-02T04:37:03,42.805,6.029,0.01,0.019,-0.015,102.0,99.0,100.0,13.4,1505.2,327.8,-0.7,1.8,2470.473,13.28,0.021,27.8
2022-09-02T04:40:03,42.805,6.029,0.014,-0.027,-0.055,100.0,101.0,100.0,13.4,1505.2,319.9,-0.8,1.8,2470.487,13.29,0.03,152.6
2022-09-02T04:43:03,42.805,6.029,-0.01,0.019,-0.006,101.0,102.0,99.0,13.3,1505.2,323.3,-0.8,1.8,2470.508,13.29,0.021,332.2
2022-09-02T04:46:03,42.805,6.029,0.0,-0.012,-0.029,102.0,100.0,100.0,13.4,1505.2,327.5,-0.8,1.9,2470.503,13.29,0.012,180.0
2022-09-02T04:49:03,42.805,6.029,-0.003,0.008,-0.027,101.0,100.0,101.0,13.4,1505.2,319.6,-0.8,1.8,2470.458,13.29,0.008,339.4
2022-09-02T04:52:03,42.805,6.029,0.028,0.007,-0.018,102.0,99.0,100.0,13.4,1505.2,321.8,-0.8,1.8,2470.488,13.29,0.028,76.0
2022-09-02T04:55:03,42.805,6.029,0.008,0.001,-0.026,100.0,103.0,100.0,13.4,1505.2,327.8,-0.8,1.8,2470.497,13.29,0.008,82.9
2022-09-02T04:58:03,42.805,6.029,0.04,-0.017,-0.032,101.0,102.0,101.0,13.4,1505.2,317.2,-0.8,1.8,2470.516,13.29,0.043,113.0
2022-09-02T05:04:03,42.805,6.029,-0.004,0.0,-0.043,101.0,102.0,100.0,13.4,1505.2,323.8,-0.8,1.8,2470.489,13.28,0.004,270.0
2022-09-02T05:07:03,42.805,6.029,0.025,0.0,-0.022,101.0,101.0,100.0,13.4,1505.2,321.7,-0.8,1.8,2470.521,13.28,0.025,90.0
2022-09-02T05:10:03,42.805,6.029,0.021,0.017,0.009,100.0,101.0,100.0,13.4,1505.2,330.1,-0.8,1.8,2470.499,13.28,0.027,51.0
2022-09-02T05:13:03,42.805,6.029,0.018,0.013,0.009,99.0,102.0,100.0,13.4,1505.2,319.5,-0.8,1.8,2470.495,13.28,0.022,54.2
2022-09-02T05:16:03,42.805,6.029,0.022,-0.005,0.011,98.0,102.0,101.0,13.3,1505.2,327.0,-0.7,1.8,2470.484,13.28,0.022,102.8
2022-09-02T05:19:03,42.805,6.029,0.004,-0.01,-0.04,100.0,101.0,100.0,13.3,1505.2,321.0,-0.8,1.8,2470.512,13.28,0.01,158.2
2022-09-02T05:22:03,42.805,6.029,0.005,-0.013,-0.039,100.0,102.0,99.0,13.4,1505.2,319.2,-0.8,1.8,2470.528,13.28,0.013,159.0
2022-09-02T05:25:03,42.805,6.029,-0.008,-0.002,-0.029,101.0,102.0,100.0,13.4,1505.2,321.4,-0.7,1.8,2470.519,13.28,0.008,256.0
2022-09-02T05:28:03,42.805,6.029,-0.007,0.006,-0.041,103.0,101.0,99.0,13.3,1505.2,322.5,-0.8,1.8,2470.518,13.29,0.009,310.6
2022-09-02T05:31:03,42.805,6.029,0.002,-0.018,-0.035,100.0,101.0,100.0,13.4,1505.2,334.5,-0.7,1.8,2470.514,13.29,0.018,173.7
2022-09-02T05:34:03,42.805,6.029,-0.005,0.001,-0.007,100.0,102.0,100.0,13.4,1505.2,320.3,-0.8,1.8,2470.525,13.29,0.005,281.3
2022-09-02T05:37:03,42.805,6.029,-0.009,-0.006,-0.039,102.0,101.0,100.0,13.4,1505.2,320.6,-0.7,1.8,2470.459,13.29,0.01,236.3
2022-09-02T05:40:03,42.805,6.029,0.008,-0.018,0.0,101.0,101.0,99.0,13.4,1505.2,324.0,-0.8,1.8,2470.563,13.29,0.019,156.0
2022-09-02T05:43:03,42.805,6.029,0.016,0.005,-0.005,99.0,101.0,100.0,13.3,1505.2,321.7,-0.7,1.8,2470.515,13.29,0.016,72.6
2022-09-02T05:46:03,42.805,6.029,0.006,-0.01,-0.039,100.0,102.0,101.0,13.4,1505.2,330.2,-0.7,1.8,2470.532,13.29,0.011,149.0
2022-09-02T05:49:03,42.805,6.029,0.012,0.008,-0.001,101.0,101.0,100.0,13.3,1505.2,319.7,-0.8,1.8,2470.544,13.29,0.014,56.3
2022-09-02T05:52:03,42.805,6.029,0.022,0.001,-0.023,101.0,101.0,99.0,13.4,1505.2,322.9,-0.8,1.8,2470.553,13.29,0.022,87.4
2022-09-02T05:55:03,42.805,6.029,0.014,0.014,-0.005,100.0,100.0,101.0,13.4,1505.2,323.2,-0.8,1.8,2470.552,13.29,0.019,45.0
2022-09-02T05:58:03,42.805,6.029,-0.017,0.0,-0.043,101.0,101.0,100.0,13.4,1505.2,323.2,-0.7,1.7,2470.562,13.29,0.017,270.0
2022-09-02T06:04:03,42.805,6.029,-0.005,0.002,-0.02,98.0,101.0,101.0,13.3,1505.2,331.1,-0.8,1.8,2470.589,13.28,0.005,291.8
2022-09-02T06:07:03,42.805,6.029,0.007,0.01,-0.005,101.0,101.0,100.0,13.3,1505.2,322.6,-0.8,1.8,2470.591,13.28,0.012,35.0
2022-09-02T06:10:03,42.805,6.029,0.028,-0.002,-0.021,100.0,101.0,100.0,13.4,1505.2,334.2,-0.8,1.8,2470.569,13.28,0.028,94.1
2022-09-02T06:13:03,42.805,6.029,0.029,0.008,0.005,100.0,103.0,100.0,13.4,1505.2,320.9,-0.8,1.8,2470.569,13.28,0.03,74.6
2022-09-02T06:16:03,42.805,6.029,0.026,0.0,-0.003,101.0,104.0,100.0,13.4,1505.2,323.6,-0.7,1.8,2470.552,13.28,0.026,90.0
2022-09-02T06:19:03,42.805,6.029,0.008,0.011,-0.02,103.0,101.0,99.0,13.4,1505.2,323.2,-0.7,1.8,2470.562,13.28,0.013,36.0
2022-09-02T06:22:03,42.805,6.029,0.021,-0.001,-0.009,101.0,100.0,99.0,13.4,1505.2,325.7,-0.7,1.8,2470.552,13.28,0.021,92.7
2022-09-02T06:25:03,42.805,6.029,0.005,0.005,-0.003,100.0,101.0,100.0,13.4,1505.2,326.6,-0.8,1.8,2470.554,13.28,0.007,45.0
2022-09-02T06:28:03,42.805,6.029,0.028,-0.025,-0.061,100.0,101.0,100.0,13.3,1505.2,318.7,-0.7,1.9,2470.561,13.29,0.037,131.8
2022-09-02T06:31:03,42.805,6.029,0.019,0.0,-0.019,100.0,100.0,100.0,13.4,1505.2,325.6,-0.7,1.8,2470.55,13.29,0.019,90.0
2022-09-02T06:34:03,42.805,6.029,0.014,0.001,-0.01,100.0,101.0,100.0,13.3,1505.2,327.4,-0.8,1.8,2470.58,13.29,0.014,85.9
2022-09-02T06:37:03,42.805,6.029,0.012,0.005,-0.025,100.0,101.0,101.0,13.4,1505.2,326.4,-0.8,1.8,2470.585,13.29,0.013,67.4
2022-09-02T06:40:03,42.805,6.029,0.027,0.009,0.009,101.0,102.0,100.0,13.4,1505.2,322.2,-0.7,1.8,2470.557,13.29,0.028,71.6
2022-09-02T06:43:03,42.805,6.029,0.02,0.002,-0.017,100.0,101.0,100.0,13.4,1505.2,326.4,-0.8,1.8,2470.59,13.29,0.02,84.3
2022-09-02T06:46:03,42.805,6.029,0.023,0.002,0.0,102.0,100.0,100.0,13.4,1505.2,332.1,-0.8,1.8,2470.558,13.29,0.023,85.0
2022-09-02T06:49:03,42.805,6.029,0.016,-0.001,-0.008,100.0,101.0,99.0,13.4,1505.2,332.3,-0.7,1.8,2470.589,13.29,0.016,93.6
2022-09-02T06:52:03,42.805,6.029,0.021,-0.012,-0.003,99.0,100.0,100.0,13.4,1505.2,329.1,-0.8,1.8,2470.588,13.29,0.024,119.7
2022-09-02T06:55:03,42.805,6.029,-0.001,0.01,-0.014,101.0,101.0,100.0,13.4,1505.2,320.6,-0.8,1.8,2470.57,13.29,0.01,354.3
2022-09-02T06:58:03,42.805,6.029,0.01,0.003,-0.024,100.0,101.0,100.0,13.4,1505.2,318.5,-0.7,1.8,2470.556,13.29,0.01,73.3
2022-09-02T07:04:03,42.805,6.029,0.002,0.008,-0.021,100.0,101.0,99.0,13.4,1505.2,322.1,-0.8,1.8,2470.563,13.28,0.008,14.0
2022-09-02T07:07:03,42.805,6.029,0.019,0.013,-0.003,101.0,101.0,100.0,13.3,1505.2,330.8,-0.7,1.8,2470.586,13.28,0.023,55.6
2022-09-02T07:10:03,42.805,6.029,0.019,0.01,-0.026,99.0,102.0,101.0,13.4,1505.2,321.5,-0.7,1.8,2470.6,13.28,0.021,62.2
2022-09-02T07:13:03,42.805,6.029,0.013,-0.002,-0.035,101.0,100.0,101.0,13.3,1505.2,327.7,-0.8,1.8,2470.605,13.28,0.013,98.7
2022-09-02T07:16:03,42.805,6.029,0.015,-0.001,-0.022,102.0,101.0,100.0,13.3,1505.2,332.1,-0.8,1.8,2470.592,13.28,0.015,93.8
2022-09-02T07:19:03,42.805,6.029,-0.02,-0.007,-0.048,101.0,100.0,100.0,13.3,1505.2,323.7,-0.8,1.8,2470.606,13.29,0.021,250.7
2022-09-02T07:22:03,42.805,6.029,0.006,-0.019,-0.061,102.0,100.0,99.0,13.3,1505.2,323.0,-0.8,1.8,2470.606,13.29,0.019,162.5
2022-09-02T07:25:03,42.805,6.029,-0.003,0.02,0.0,100.0,101.0,100.0,13.3,1505.2,328.0,-0.8,1.9,2470.581,13.29,0.02,351.5
2022-09-02T07:28:03,42.805,6.029,0.012,0.013,0.002,101.0,101.0,99.0,13.4,1505.2,332.2,-0.7,1.8,2470.599,13.29,0.017,42.7
2022-09-02T07:31:03,42.805,6.029,0.0,-0.008,-0.031,100.0,101.0,100.0,13.4,1505.2,330.8,-0.7,1.8,2470.656,13.29,0.008,180.0
2022-09-02T07:34:03,42.805,6.029,0.004,0.007,-0.016,102.0,101.0,100.0,13.4,1505.2,324.2,-0.8,1.9,2470.616,13.29,0.008,29.7
2022-09-02T07:37:03,42.805,6.029,0.012,-0.007,-0.019,102.0,101.0,100.0,13.4,1505.2,323.9,-0.8,1.8,2470.601,13.29,0.013,120.3
2022-09-02T07:40:03,42.805,6.029,-0.001,0.014,0.001,101.0,101.0,100.0,13.4,1505.2,319.2,-0.7,1.8,2470.629,13.29,0.014,355.9
2022-09-02T07:43:03,42.805,6.029,0.004,-0.006,-0.007,101.0,101.0,100.0,13.3,1505.2,323.2,-0.8,1.8,2470.644,13.29,0.007,146.3
2022-09-02T07:46:03,42.805,6.029,-0.016,0.008,-0.024,101.0,101.0,99.0,13.4,1505.2,330.2,-0.8,1.8,2470.638,13.29,0.017,296.6
2022-09-02T07:49:03,42.805,6.029,0.014,0.017,-0.008,100.0,103.0,100.0,13.4,1505.2,317.6,-0.7,1.8,2470.611,13.29,0.022,39.5
2022-09-02T07:52:03,42.805,6.029,0.018,0.007,-0.014,101.0,101.0,101.0,13.4,1505.2,323.1,-0.8,1.8,2470.634,13.29,0.019,68.8
2022-09-02T07:55:03,42.805,6.029,0.0,0.016,0.005,101.0,101.0,101.0,13.4,1505.2,320.9,-0.8,1.8,2470.622,13.29,0.016,0.0
2022-09-02T07:58:03,42.805,6.029,0.001,-0.002,-0.059,100.0,101.0,100.0,13.4,1505.2,325.4,-0.8,1.8,2470.682,13.29,0.002,153.4
2022-09-02T08:04:03,42.805,6.029,-0.012,0.011,-0.042,100.0,102.0,101.0,13.3,1505.2,324.1,-0.7,1.8,2470.666,13.28,0.016,312.5
2022-09-02T08:07:03,42.805,6.029,0.019,0.005,-0.02,101.0,101.0,100.0,13.4,1505.2,328.3,-0.7,1.9,2470.667,13.28,0.019,75.3
2022-09-02T08:10:03,42.805,6.029,0.03,0.003,-0.014,101.0,102.0,100.0,13.4,1505.2,322.5,-0.7,1.8,2470.692,13.28,0.03,84.3
2022-09-02T08:13:03,42.805,6.029,-0.016,-0.014,-0.021,101.0,101.0,100.0,13.4,1505.2,325.7,-0.7,1.8,2470.671,13.28,0.021,228.8
2022-09-02T08:16:03,42.805,6.029,0.013,0.016,-0.008,100.0,104.0,100.0,13.3,1505.2,319.5,-0.8,1.8,2470.647,13.28,0.02,39.1
2022-09-02T08:19:03,42.805,6.029,0.021,0.021,-0.004,100.0,102.0,100.0,13.3,1505.2,317.6,-0.7,1.8,2470.701,13.29,0.029,45.0
2022-09-02T08:22:03,42.805,6.029,-0.003,0.008,0.004,100.0,101.0,99.0,13.3,1505.2,319.5,-0.8,1.8,2470.708,13.29,0.008,339.4
2022-09-02T08:25:03,42.805,6.029,0.026,0.0,-0.002,101.0,102.0,100.0,13.4,1505.2,322.7,-0.8,1.8,2470.654,13.29,0.026,90.0
2022-09-02T08:28:03,42.805,6.029,0.048,-0.008,0.0,101.0,102.0,100.0,13.3,1505.2,333.1,-0.8,1.8,2470.695,13.29,0.048,99.5
2022-09-02T08:31:03,42.805,6.029,0.02,-0.004,-0.006,100.0,101.0,100.0,13.4,1505.2,330.5,-0.8,1.8,2470.724,13.29,0.02,101.3
2022-09-02T08:34:03,42.805,6.029,0.002,0.016,-0.04,101.0,100.0,101.0,13.4,1505.2,328.2,-0.8,1.8,2470.647,13.29,0.016,7.1
2022-09-02T08:37:03,42.805,6.029,-0.001,0.01,-0.022,101.0,101.0,101.0,13.4,1505.2,321.4,-0.7,1.8,2470.642,13.29,0.01,354.3
2022-09-02T08:40:03,42.805,6.029,0.0,-0.008,-0.022,100.0,102.0,100.0,13.3,1505.2,326.4,-0.8,1.8,2470.693,13.29,0.008,180.0
2022-09-02T08:43:03,42.805,6.029,0.0,0.025,-0.001,101.0,101.0,100.0,13.3,1505.2,325.4,-0.8,1.8,2470.737,13.29,0.025,0.0
2022-09-02T08:46:03,42.805,6.029,0.003,0.012,-0.019,100.0,101.0,101.0,13.4,1505.2,321.0,-0.8,1.8,2470.7,13.29,0.012,14.0
2022-09-02T08:49:03,42.805,6.029,0.035,-0.003,-0.023,99.0,101.0,102.0,13.4,1505.2,331.1,-0.8,1.8,2470.689,13.29,0.035,94.9
2022-09-02T08:52:03,42.805,6.029,0.012,-0.016,-0.024,102.0,101.0,100.0,13.4,1505.2,327.4,-0.8,1.8,2470.681,13.29,0.02,143.1
2022-09-02T08:55:03,42.805,6.029,0.021,0.009,0.029,100.0,102.0,100.0,13.3,1505.2,333.6,-0.8,1.8,2470.727,13.29,0.022,66.8
2022-09-02T08:58:03,42.805,6.029,0.017,-0.01,-0.006,101.0,100.0,102.0,13.4,1505.2,319.9,-0.7,1.8,2470.7,13.29,0.019,120.5
2022-09-02T09:04:03,42.805,6.029,0.014,0.003,-0.01,101.0,101.0,100.0,13.4,1505.2,321.7,-0.8,1.8,2470.68,13.28,0.014,77.9
2022-09-02T09:07:03,42.805,6.029,0.008,-0.013,-0.042,101.0,101.0,101.0,13.3,1505.2,322.5,-0.7,1.9,2470.702,13.28,0.015,148.4
2022-09-02T09:10:03,42.805,6.029,0.001,0.017,-0.006,101.0,102.0,100.0,13.4,1505.2,322.4,-0.7,1.8,2470.754,13.28,0.017,3.4
2022-09-02T09:16:03,42.805,6.029,-0.012,0.004,-0.049,100.0,102.0,101.0,13.3,1505.2,325.7,-0.8,1.8,2470.693,13.29,0.012,288.4
2022-09-02T09:22:03,42.805,6.029,0.008,0.007,-0.022,102.0,104.0,101.0,13.4,1505.2,319.3,-0.8,1.8,2470.729,13.29,0.01,48.8
2022-09-02T09:25:03,42.805,6.029,0.008,0.003,-0.036,102.0,101.0,101.0,13.4,1505.2,321.2,-0.8,1.8,2470.73,13.29,0.008,69.4
2022-09-02T09:28:03,42.805,6.029,0.024,-0.01,-0.011,103.0,103.0,101.0,13.4,1505.2,328.3,-0.7,1.9,2470.74,13.29,0.026,112.6
2022-09-02T09:31:03,42.805,6.029,0.016,-0.005,-0.016,103.0,102.0,101.0,13.3,1505.2,328.2,-0.7,1.8,2470.747,13.29,0.016,107.4
2022-09-02T09:34:03,42.805,6.029,-0.004,0.014,0.007,99.0,103.0,102.0,13.3,1505.2,325.5,-0.8,1.8,2470.758,13.29,0.014,344.1
2022-09-02T09:37:03,42.805,6.029,0.009,0.014,0.002,101.0,102.0,100.0,13.3,1505.2,333.1,-0.7,1.8,2470.735,13.29,0.016,32.7
2022-09-02T09:40:03,42.805,6.029,0.013,-0.005,-0.035,102.0,103.0,101.0,13.4,1505.2,317.8,-0.8,1.8,2470.75,13.29,0.013,111.0
2022-09-02T09:43:03,42.805,6.029,0.014,-0.001,-0.01,101.0,102.0,101.0,13.4,1505.2,324.7,-0.7,1.8,2470.723,13.29,0.014,94.1
2022-09-02T09:46:03,42.805,6.029,0.016,0.008,-0.034,101.0,103.0,100.0,13.4,1505.2,318.5,-0.8,1.8,2470.746,13.29,0.017,63.4
2022-09-02T09:49:03,42.805,6.029,0.004,-0.004,-0.05,103.0,101.0,101.0,13.4,1505.2,322.1,-0.7,1.8,2470.74,13.29,0.005,135.0
2022-09-02T09:52:03,42.805,6.029,0.03,-0.006,-0.006,101.0,102.0,101.0,13.4,1505.2,332.2,-0.7,1.8,2470.793,13.29,0.03,101.3
2022-09-02T09:55:03,42.805,6.029,0.014,0.009,0.007,103.0,102.0,100.0,13.3,1505.2,324.8,-0.8,1.8,2470.753,13.29,0.016,57.3
2022-09-02T09:58:03,42.805,6.029,0.005,0.011,-0.024,102.0,101.0,102.0,13.4,1505.2,322.5,-0.8,1.8,2470.755,13.29,0.012,24.4
2022-09-02T10:04:03,42.805,6.029,-0.01,0.0,-0.026,100.0,102.0,101.0,13.4,1505.2,325.5,-0.8,1.8,2470.743,13.28,0.01,270.0
2022-09-02T10:07:03,42.805,6.029,0.036,-0.012,-0.017,103.0,103.0,102.0,13.3,1505.2,326.3,-0.8,1.8,2470.758,13.28,0.037,108.4
2022-09-02T10:10:03,42.805,6.029,0.017,0.0,-0.025,103.0,102.0,102.0,13.4,1505.2,321.0,-0.8,1.8,2470.748,13.28,0.017,90.0